When you browse on this site, cookies collect data to enhance your experience and personalize the content and advertising you see.
Visit our Privacy Policy to learn more. By continuing to use the site, you agree to this use of cookies and data.
  • In Latvia
  • List of Countries
  • For 7 days
  • Water Temperature
  • Weather Map
  • Weather Widgets
  • user-avatar
    Login

    Hourly Weather Shusha

    Today, 5 June, Friday

    Time Temperature Precipitation Wind Pressure Humidity
    00:00 +15°C° 0 mm 1 mps 658 mmHg 82%
    01:00 +15°C° 0 mm 1 mps 658 mmHg 80%
    02:00 +15°C° 0 mm 1 mps 658 mmHg 79%
    03:00 +15°C° 0 mm 1 mps 658 mmHg 78%
    04:00 +15°C° 0 mm 1 mps 659 mmHg 77%
    05:00 +16°C° 0 mm 1 mps 659 mmHg 76%
    06:00 +16°C° 0 mm 1 mps 660 mmHg 75%
    07:00 +19°C° 0.1 mm 1 mps 660 mmHg 70%
    08:00 +19°C° 0.1 mm 2 mps 661 mmHg 65%
    09:00 +21°C° 0 mm 2 mps 661 mmHg 60%
    10:00 +23°C° 0.2 mm 2 mps 661 mmHg 58%
    11:00 +24°C° 0.2 mm 2 mps 661 mmHg 56%
    12:00 +24°C° 0.2 mm 3 mps 661 mmHg 55%
    13:00 +25°C° 0.6 mm 3 mps 661 mmHg 53%
    14:00 +25°C° 0.6 mm 3 mps 661 mmHg 52%
    15:00 +25°C° 0.6 mm 3 mps 661 mmHg 51%
    16:00 +24°C° 0.7 mm 2 mps 661 mmHg 54%
    17:00 +24°C° 0.7 mm 2 mps 661 mmHg 57%
    18:00 +23°C° 0.7 mm 2 mps 661 mmHg 61%
    19:00 +20°C° 0.5 mm 2 mps 661 mmHg 65%
    20:00 +19°C° 0.5 mm 1 mps 661 mmHg 68%
    21:00 +16°C° 0.5 mm 1 mps 661 mmHg 72%
    22:00 +16°C° 0.3 mm 1 mps 662 mmHg 72%
    23:00 +16°C° 0.3 mm 1 mps 662 mmHg 71%

    Tomorrow, 6 June, Saturday

    Time Temperature Precipitation Wind Pressure Humidity
    00:00 +16°C° 0.3 mm 1 mps 662 mmHg 70%
    01:00 +16°C° 0.1 mm 1 mps 662 mmHg 72%
    02:00 +15°C° 0.1 mm 1 mps 662 mmHg 74%
    03:00 +14°C° 0.1 mm 1 mps 662 mmHg 76%
    04:00 +15°C° 0.2 mm 1 mps 662 mmHg 75%
    05:00 +15°C° 0.2 mm 1 mps 663 mmHg 75%
    06:00 +16°C° 0.2 mm 1 mps 663 mmHg 74%
    07:00 +18°C° 0.3 mm 1 mps 663 mmHg 70%
    08:00 +18°C° 0.3 mm 2 mps 664 mmHg 65%
    09:00 +19°C° 0.3 mm 2 mps 664 mmHg 61%
    10:00 +19°C° 0.7 mm 2 mps 664 mmHg 61%
    11:00 +20°C° 0.7 mm 2 mps 664 mmHg 61%
    12:00 +20°C° 0.7 mm 2 mps 663 mmHg 61%
    13:00 +20°C° 0.5 mm 2 mps 663 mmHg 61%
    14:00 +20°C° 0.5 mm 2 mps 663 mmHg 61%
    15:00 +20°C° 0.5 mm 2 mps 663 mmHg 61%
    16:00 +20°C° 0.4 mm 2 mps 663 mmHg 64%
    17:00 +19°C° 0.4 mm 2 mps 663 mmHg 68%
    18:00 +19°C° 0.4 mm 2 mps 663 mmHg 71%
    19:00 +17°C° 0.5 mm 2 mps 663 mmHg 74%
    20:00 +16°C° 0.5 mm 1 mps 663 mmHg 78%
    21:00 +15°C° 0.5 mm 1 mps 663 mmHg 81%
    22:00 +14°C° 0.1 mm 1 mps 663 mmHg 81%
    23:00 +14°C° 0.1 mm 1 mps 662 mmHg 80%

    Day after tomorrow, 7 June, Sunday

    Time Temperature Precipitation Wind Pressure Humidity
    00:00 +14°C° 0.1 mm 1 mps 662 mmHg 79%
    01:00 +13°C° 0 mm 1 mps 662 mmHg 78%
    02:00 +13°C° 0 mm 2 mps 662 mmHg 77%
    03:00 +13°C° 0 mm 2 mps 662 mmHg 75%
    04:00 +14°C° 0 mm 1 mps 662 mmHg 73%
    05:00 +15°C° 0 mm 1 mps 663 mmHg 72%
    06:00 +16°C° 0 mm 1 mps 663 mmHg 70%
    07:00 +18°C° 0 mm 1 mps 663 mmHg 65%
    08:00 +20°C° 0 mm 1 mps 664 mmHg 60%
    09:00 +21°C° 0 mm 1 mps 664 mmHg 55%
    10:00 +21°C° 0 mm 2 mps 664 mmHg 53%
    11:00 +23°C° 0 mm 2 mps 664 mmHg 51%
    12:00 +24°C° 0 mm 3 mps 663 mmHg 49%
    13:00 +24°C° 0 mm 3 mps 663 mmHg 49%
    14:00 +24°C° 0 mm 2 mps 663 mmHg 49%
    15:00 +24°C° 0 mm 2 mps 662 mmHg 49%
    16:00 +24°C° 0 mm 2 mps 662 mmHg 52%
    17:00 +23°C° 0 mm 2 mps 662 mmHg 54%
    18:00 +23°C° 0 mm 2 mps 662 mmHg 57%
    19:00 +20°C° 0 mm 2 mps 662 mmHg 59%
    20:00 +19°C° 0 mm 1 mps 661 mmHg 62%
    21:00 +16°C° 0 mm 1 mps 661 mmHg 65%
    22:00 +16°C° 0 mm 2 mps 661 mmHg 65%
    23:00 +16°C° 0 mm 2 mps 661 mmHg 65%

    8 June, Monday

    Time Temperature Precipitation Wind Pressure Humidity
    00:00 +15°C° 0 mm 2 mps 660 mmHg 65%
    01:00 +15°C° 0 mm 2 mps 660 mmHg 65%
    02:00 +15°C° 0 mm 2 mps 660 mmHg 65%
    03:00 +14°C° 0 mm 2 mps 660 mmHg 64%
    04:00 +15°C° 0 mm 2 mps 660 mmHg 64%
    05:00 +16°C° 0 mm 1 mps 660 mmHg 63%
    06:00 +18°C° 0 mm 1 mps 660 mmHg 62%
    07:00 +20°C° 0 mm 1 mps 661 mmHg 55%
    08:00 +21°C° 0 mm 1 mps 661 mmHg 48%
    09:00 +23°C° 0 mm 2 mps 662 mmHg 41%
    10:00 +24°C° 0 mm 2 mps 661 mmHg 39%
    11:00 +25°C° 0 mm 2 mps 661 mmHg 37%
    12:00 +26°C° 0 mm 2 mps 661 mmHg 35%
    13:00 +26°C° 0 mm 2 mps 661 mmHg 34%
    14:00 +26°C° 0 mm 2 mps 661 mmHg 34%
    15:00 +26°C° 0 mm 2 mps 660 mmHg 34%
    16:00 +25°C° 0 mm 2 mps 660 mmHg 38%
    17:00 +25°C° 0 mm 2 mps 660 mmHg 43%
    18:00 +24°C° 0 mm 2 mps 660 mmHg 47%
    19:00 +21°C° 0 mm 2 mps 659 mmHg 48%
    20:00 +19°C° 0 mm 2 mps 659 mmHg 48%
    21:00 +17°C° 0 mm 2 mps 659 mmHg 49%
    22:00 +16°C° 0 mm 2 mps 659 mmHg 49%
    23:00 +16°C° 0 mm 2 mps 659 mmHg 49%

    9 June, Tuesday

    Time Temperature Precipitation Wind Pressure Humidity
    00:00 +16°C° 0 mm 2 mps 659 mmHg 49%
    01:00 +15°C° 0 mm 2 mps 659 mmHg 49%
    02:00 +15°C° 0 mm 2 mps 659 mmHg 50%
    03:00 +15°C° 0 mm 2 mps 658 mmHg 51%
    04:00 +16°C° 0 mm 2 mps 659 mmHg 53%
    05:00 +16°C° 0 mm 2 mps 659 mmHg 55%
    06:00 +17°C° 0 mm 2 mps 660 mmHg 57%
    07:00 +19°C° 0 mm 2 mps 660 mmHg 53%
    08:00 +20°C° 0 mm 2 mps 661 mmHg 48%
    09:00 +23°C° 0 mm 2 mps 661 mmHg 43%
    10:00 +24°C° 0 mm 2 mps 661 mmHg 43%
    11:00 +24°C° 0 mm 2 mps 661 mmHg 43%
    12:00 +25°C° 0 mm 3 mps 661 mmHg 44%
    13:00 +25°C° 0 mm 3 mps 661 mmHg 44%
    14:00 +25°C° 0 mm 2 mps 661 mmHg 45%
    15:00 +25°C° 0 mm 2 mps 660 mmHg 46%
    16:00 +25°C° 0 mm 2 mps 660 mmHg 49%
    17:00 +24°C° 0 mm 1 mps 660 mmHg 52%
    18:00 +23°C° 0 mm 1 mps 660 mmHg 55%
    19:00 +22°C° 0 mm 1 mps 660 mmHg 59%
    20:00 +20°C° 0 mm 1 mps 660 mmHg 63%
    21:00 +18°C° 0 mm 1 mps 660 mmHg 66%
    22:00 +18°C° 0 mm 1 mps 660 mmHg 65%
    23:00 +18°C° 0 mm 1 mps 660 mmHg 64%

    10 June, Wednesday

    Time Temperature Precipitation Wind Pressure Humidity
    00:00 +18°C° 0 mm 1 mps 660 mmHg 64%
    01:00 +16°C° 0 mm 1 mps 660 mmHg 64%
    02:00 +16°C° 0 mm 1 mps 660 mmHg 64%
    03:00 +16°C° 0 mm 1 mps 659 mmHg 65%
    04:00 +16°C° 0 mm 1 mps 660 mmHg 64%
    05:00 +18°C° 0 mm 1 mps 660 mmHg 63%
    06:00 +19°C° 0 mm 1 mps 660 mmHg 62%
    07:00 +19°C° 0 mm 2 mps 661 mmHg 57%
    08:00 +21°C° 0 mm 2 mps 661 mmHg 52%
    09:00 +23°C° 0 mm 2 mps 662 mmHg 47%
    10:00 +24°C° 0 mm 2 mps 662 mmHg 46%
    11:00 +25°C° 0 mm 2 mps 662 mmHg 46%
    12:00 +26°C° 0 mm 3 mps 662 mmHg 45%
    13:00 +26°C° 0.1 mm 3 mps 662 mmHg 46%
    14:00 +26°C° 0.1 mm 2 mps 662 mmHg 47%
    15:00 +26°C° 0.1 mm 2 mps 661 mmHg 48%
    16:00 +25°C° 0.4 mm 2 mps 661 mmHg 51%
    17:00 +25°C° 0.4 mm 1 mps 661 mmHg 54%
    18:00 +24°C° 0.4 mm 1 mps 661 mmHg 58%
    19:00 +22°C° 0.2 mm 1 mps 661 mmHg 60%
    20:00 +21°C° 0.2 mm 1 mps 661 mmHg 62%
    21:00 +18°C° 0.2 mm 2 mps 661 mmHg 64%
    22:00 +18°C° 0 mm 2 mps 661 mmHg 63%
    23:00 +17°C° 0 mm 2 mps 661 mmHg 62%
    Show more